Location: *
(43.2048°N, 0.1612°E)
Time: 18:16:10
(UTC+00:00)

Cosmos 1900 - Pass Details

Date: 30 September 2023
Orbit: 678 x 741 km, 66.1° (Epoch: 05 December)

Event Time Altitude Azimuth Distance (km) Brightness Sun altitude
Exits shadow 04:09:45 - 325° (NW) 3,047 7.4 -19.8°
Reaches altitude 10° 04:11:50 10° 324° (NW) 2,237 6.7 -19.5°
Maximum altitude 04:16:55 70° 241° (WSW) 785 4.3 -18.6°
Drops below altitude 10° 04:22:02 10° 159° (SSE) 2,242 7.0 -17.7°
Sets 04:24:24 0° 157° (SSE) 3,162 7.8 -17.2°
